COSMOS 1275 DEB, 13807

Orbit data source: Space-Track

COSMOS 1275 DEB, 13807 is space debris in LEO originally from a launch on Thu, 04 Jun 1981 UTC launched from the Plesetsk Missile And Space Complex (PKMTR). Debris objects in space refer to the collection of defunct objects orbiting the Earth. Examples of debris include non-operational satellites, rocket bodies, and fragments generated from explosions, collisions, or faulty payload assembly.

Loading next visibility...
Identifier
13807, 1981-053HB
Orbit
LEO
Country
Flag of CISCIS
Related business
Manufacturer
Unknown
Mission
Spacecraft
Bus & Motor
Unknown
Mass
Unknown
Launch date (UTC)
1981-06-04 (45 years ago)
Launch vehicle
Unknown
Launch site
Plesetsk Missile And Space Complex (PKMTR)
Object type
Payload
Rocket body
Debris
Shape & HBR
Unknown shape, 0.1 m
Radar Cross Section
Small (<0.1 m²)

Expand to show TLE details & history
Last TLE update: 15 hours ago

TLE from 15 hours ago
0 COSMOS 1275 DEB
1 13807U 81053HB  26104.34170386  .00002241  00000-0  83519-3 0  9999
2 13807  82.9452  77.2473 0008923 238.6244 121.4071 14.31612899970514
Epoch: 2026-04-14T08:12Z
TLE epoch observation values (Epoch: 2026-04-14T08:12:03.213Z)
Latitude
-0.00005°
Longitude
111.71457°
Altitude
792.66 km
Speed
7.456 km/s
True Right ascension
05h 08m 59s
True Declination
0° 00' 00"
Sunlit
Object was in daylight at epoch
Visualization orbit readout
Latitude
Unknown
Longitude
Unknown
Altitude
Unknown
Speed
Unknown
Apparent Right ascension
Unknown
Apparent Declination
Unknown
Sunlit
N/A
Visualization observer readout
Local Sidereal Time
06:12:18
Azimuth
Unknown
Elevation
Unknown
Doppler factor
Unknown
Orbital elements
Apogee altitude
789.806 km
Perigee altitude
777.025 km
Semi-major axis
7,161.552 km
Eccentricity
0.00089
Inclination
82.9452°
RAAN
77.2473°
Arg. of periapsis
238.6244°
True anomaly
121.49432°
Mean anomaly
121.4071°
Eccentric anomaly
121.45071°
Mean motion
3.58123 °/min
Orbital period
100.52 mins
BSTAR
0.00083519
Loading maneuver chart data...
Computing Atmospheric mass density...
Loading historical data...
Loading historical data...
Loading historical data...
Loading historical data...
Loading historical data...
Loading historical data...
Loading historical data...

Documentation

Showing up to 5 results
|